Location: Dompnac
(44.5644°N, 4.1026°E)
Time: 10:13:37
(UTC+00:00)

Cosmos 2082 Rocket - Visible Passes

Search period start: 18 June 2021 00:00
Search period end: 28 June 2021 00:00
Orbit: 834 x 852 km, 71.0° (Epoch: 17 June)

Date Brightness Start Highest point End Pass type
(mag) Time Alt. Az. Time Alt. Az. Time Alt. Az.
19 Jun 3.9 03:19:39 10° SSE 03:24:25 29° ESE 03:29:13 10° NE visible
20 Jun 3.9 03:05:11 10° SSE 03:09:53 28° ESE 03:14:36 10° NE visible
21 Jun 4.0 02:50:44 10° SSE 02:55:21 27° ESE 02:59:59 10° NE visible
22 Jun 4.0 02:36:16 10° SSE 02:40:49 26° ESE 02:45:22 10° NE visible
23 Jun 4.0 02:21:50 10° SSE 02:26:16 25° ESE 02:30:45 10° NE visible
24 Jun 4.0 02:07:23 10° SSE 02:11:45 24° ESE 02:16:08 10° NE visible
25 Jun 4.0 01:52:56 10° SSE 01:57:12 23° ESE 02:01:30 10° NE visible
26 Jun 4.0 01:38:30 10° SSE 01:42:41 22° E 01:46:52 10° NE visible
26 Jun 2.5 03:20:47 10° SW 03:26:17 58° WNW 03:31:51 10° NNE visible
27 Jun 4.0 01:24:19 11° SE 01:28:09 21° E 01:32:14 10° NE visible
27 Jun 2.4 03:06:11 10° SW 03:11:44 60° WNW 03:17:18 10° NNE visible
